Location: Unspecified
(0.0000°N, 0.0000°E)
Time: 22:55:08
(UTC+01:00)

CZ-4B R/B - Visible Passes

Search period start: 25 November 2014 00:00
Search period end: 05 December 2014 00:00
Orbit: 492 x 674 km, 97.6° (Epoch: 25 November)

Date Brightness Start Highest point End Pass type
(mag) Time Alt. Az. Time Alt. Az. Time Alt. Az.
25 Nov 6.0 04:04:07 13° SE 04:04:07 13° SE 04:04:50 10° SE visible
26 Nov 5.8 04:10:00 15° SE 04:10:00 15° SE 04:11:07 10° SSE visible
27 Nov 5.6 04:15:54 17° SE 04:15:54 17° SE 04:17:19 10° SSE visible
28 Nov 5.4 04:21:47 20° SSE 04:21:47 20° SSE 04:23:26 10° SSE visible
29 Nov 5.2 04:27:41 22° SSE 04:27:41 22° SSE 04:29:29 10° S visible
30 Nov 5.0 04:33:34 24° SSE 04:33:34 24° SSE 04:35:29 10° S visible
01 Dec 4.9 04:39:27 25° S 04:39:27 25° S 04:41:26 10° S visible
02 Dec 4.8 04:45:21 26° S 04:45:21 26° S 04:47:21 10° S visible
03 Dec 4.7 04:51:14 26° SSW 04:51:14 26° SSW 04:53:13 10° SSW visible
04 Dec 4.7 04:57:07 25° SSW 04:57:07 25° SSW 04:59:02 10° SSW visible
